Orbital Elements at Epoch 2459200.5 (2020-Dec-17.0) TDB
Reference: JPL 16 (heliocentric ecliptic J2000)
Element | Value | Uncertainty (1-sigma) | Units |
e | .2705222790902721 | 5.648e-08 | |
a | 2.386726864963172 | 1.3033e-08 | au |
q | 1.741064073887355 | 1.3365e-07 | au |
i | 10.52098667368434 | 5.6378e-06 | deg |
node | 278.3855098593586 | 3.3874e-05 | deg |
peri | 27.025411666335 | 3.6651e-05 | deg |
M | 194.4742274255367 | 1.5306e-05 | deg |
tp | 2459819.749453539394 (2022-Aug-28.24945354) | 6.1414e-05 | TDB |
period | 1346.798143919823 3.69 | 1.1032e-05 3.02e-08 | d yr |
n | .2673006356782086 | 2.1895e-09 | deg/d |
Q | 3.03238965603899 | 1.6559e-08 | au |
|
| | Orbit Determination Parameters
Additional Information
|